CW8593 Weather Reports


Display with metric or nautical units.
time (UTC)temp
F
wind
direction
speed
MPH
gust
MPH
rain 1hr
in
rain 24hr
in
rain mn
in
humidity
%
barometer
mb
20150202010337 44 286 16.0 26.0 0.00 0.00 0.00 58 1009.1
20150202005337 43 275 18.0 31.0 0.00 0.00 0.00 60 1009.1
20150202003341 42 266 18.0 25.0 0.00 0.00 0.00 63 1009.1
20150202002340 42 278 17.0 31.0 0.00 0.00 0.00 63 1009.1
20150202000343 42 278 17.0 26.0 0.00 0.00 0.00 64 1008.9
20150201233337 42 292 15.0 26.0 0.00 0.00 0.00 63 1008.9
20150201232339 42 304 14.0 26.0 0.00 0.00 0.00 63 1008.9
20150201231342 42 279 16.0 26.0 0.00 0.00 0.00 62 1008.8
20150201230337 42 285 17.0 25.0 0.00 0.00 0.00 62 1008.7
20150201225337 42 280 13.0 26.0 0.00 0.00 0.00 62 1008.7
20150201223341 43 292 13.0 22.0 0.00 0.00 0.00 60 1008.5
20150201222338 43 279 9.0 26.0 0.00 0.00 0.00 58 1008.4
20150201221337 43 280 14.0 21.0 0.00 0.00 0.00 58 1008.4
20150201220338 43 287 11.0 22.0 0.00 0.00 0.00 60 1008.4
20150201215336 43 279 17.0 23.0 0.00 0.00 0.00 60 1008.2
20150201214347 43 277 16.0 26.0 0.00 0.00 0.00 60 1008.3
20150201212337 43 271 12.0 22.0 0.00 0.00 0.00 60 1008.5
20150201211339 43 0 10.0 21.0 0.00 0.00 0.00 61 1008.5
20150201204338 43 284 8.0 21.0 0.00 0.00 0.00 60 1008.4
20150201202342 43 269 13.0 20.0 0.00 0.00 0.00 61 1008.3
20150201201338 43 265 8.0 14.0 0.00 0.00 0.00 61 1008.4
20150201200342 43 274 9.0 17.0 0.00 0.00 0.00 60 1008.3
20150201195339 44 287 9.0 16.0 0.00 0.00 0.00 60 1008.4
20150201194342 44 289 11.0 21.0 0.00 0.00 0.00 59 1008.4
20150201193339 44 265 14.0 25.0 0.00 0.00 0.00 59 1008.1
20150201192338 44 302 13.0 22.0 0.00 0.00 0.00 59 1008.1
20150201191339 44 276 12.0 23.0 0.00 0.00 0.00 59 1008.0
20150201190343 44 294 11.0 21.0 0.00 0.00 0.00 59 1008.0
20150201183336 45 272 12.0 22.0 0.00 0.00 0.00 58 1007.6
20150201182338 45 286 13.0 22.0 0.00 0.00 0.00 58 1007.6
20150201181337 45 275 8.0 21.0 0.00 0.00 0.00 57 1007.5
20150201175339 46 259 8.0 15.0 0.00 0.00 0.00 55 1007.3
20150201174340 46 273 8.0 16.0 0.00 0.00 0.00 53 1007.1
20150201173339 47 273 11.0 20.0 0.00 0.00 0.00 52 1007.0
20150201172339 47 265 7.0 15.0 0.00 0.00 0.00 51 1006.7
20150201171337 47 261 9.0 17.0 0.00 0.00 0.00 50 1006.6
20150201163337 49 288 7.0 20.0 0.00 0.00 0.00 45 1005.9
20150201162337 50 263 12.0 18.0 0.00 0.00 0.00 44 1005.9
20150201161338 50 288 13.0 21.0 0.00 0.00 0.00 43 1005.7
20150201155342 50 287 12.0 20.0 0.00 0.00 0.00 43 1004.7
20150201154338 51 296 9.0 24.0 0.00 0.00 0.00 45 1004.7
20150201152338 51 267 11.0 25.0 0.00 0.00 0.00 43 1004.7
20150201151339 51 271 12.0 25.0 0.00 0.00 0.00 42 1004.7
20150201145339 52 281 7.0 23.0 0.00 0.00 0.00 41 1004.5
20150201144338 52 271 12.0 24.0 0.00 0.00 0.00 40 1004.5
20150201143339 52 298 7.0 17.0 0.00 0.00 0.00 41 1004.5
20150201142338 52 289 8.0 24.0 0.00 0.00 0.00 42 1004.4
20150201134341 52 255 11.0 26.0 0.00 0.00 0.00 43 1003.9
20150201125337 52 288 8.0 15.0 0.00 0.00 0.00 48 1004.1
20150201124336 51 259 9.0 17.0 0.00 0.00 0.00 48 1004.2
20150201123340 51 302 9.0 18.0 0.00 0.00 0.00 48 1004.1
20150201122338 51 283 3.0 15.0 0.00 0.00 0.00 49 1004.1
20150201121338 50 272 10.0 20.0 0.00 0.00 0.00 49 1004.0
20150201120337 50 268 12.0 21.0 0.00 0.00 0.00 50 1004.0
20150201114338 50 279 12.0 24.0 0.00 0.00 0.00 50 1003.8
20150201113337 50 301 7.0 20.0 0.00 0.00 0.00 51 1003.6
20150201112338 50 268 11.0 22.0 0.00 0.00 0.00 52 1003.6
20150201111340 49 336 10.0 20.0 0.00 0.00 0.00 53 1003.6
20150201110338 49 276 12.0 22.0 0.00 0.00 0.00 54 1003.4
20150201105338 48 277 16.0 23.0 0.00 0.00 0.00 55 1003.4
20150201103337 48 323 8.0 18.0 0.00 0.00 0.00 57 1002.9
20150201102339 47 311 10.0 20.0 0.00 0.00 0.00 56 1002.9
20150201101345 47 338 12.0 21.0 0.00 0.00 0.00 57 1002.9
20150201095340 47 320 9.0 20.0 0.00 0.00 0.00 58 1002.6
20150201094337 47 307 3.0 13.0 0.00 0.00 0.00 60 1002.6
20150201093338 46 347 1.0 12.0 0.00 0.00 0.00 62 1002.3
20150201092337 45 333 5.0 15.0 0.00 0.00 0.00 62 1001.1
20150201091337 45 324 6.0 22.0 0.00 0.00 0.00 63 1001.1
20150201090339 44 276 10.0 20.0 0.00 0.00 0.00 63 1001.1
20150201085337 44 287 11.0 25.0 0.00 0.00 0.00 63 1001.1
20150201084337 44 292 11.0 23.0 0.00 0.00 0.00 64 1001.1
20150201082337 43 285 12.0 23.0 0.00 0.00 0.00 64 1000.9
20150201081338 43 275 9.0 17.0 0.00 0.00 0.00 64 1000.8
20150201075336 43 322 3.0 14.0 0.00 0.00 0.00 65 1000.5
20150201072337 42 310 6.0 13.0 0.00 0.00 0.00 65 1000.0
20150201071341 42 322 10.0 22.0 0.00 0.00 0.00 65 999.6
20150201065338 42 3 6.0 15.0 0.00 0.00 0.00 66 998.5
20150201063338 42 301 12.0 28.0 0.00 0.00 0.00 66 998.5
20150201060343 43 298 16.0 31.0 0.00 0.00 0.00 64 997.1
20150201054337 43 289 12.0 24.0 0.00 0.00 0.00 64 997.2
20150201053339 43 317 13.0 28.0 0.00 0.00 0.00 64 997.2
20150201052339 43 302 10.0 32.0 0.00 0.00 0.00 62 996.8
20150201050336 44 278 19.0 37.0 0.00 0.00 0.00 61 996.5
20150201045339 44 286 20.0 32.0 0.00 0.00 0.00 62 996.6
20150201044337 43 255 21.0 32.0 0.00 0.00 0.00 63 996.6
20150201043339 43 279 26.0 44.0 0.00 0.00 0.00 64 996.3
20150201042406 43 282 24.0 35.0 0.00 0.00 0.00 65 996.3
20150201041348 42 273 22.0 35.0 0.00 0.00 0.00 66 996.4
20150201040339 42 281 19.0 36.0 0.00 0.00 0.00 66 996.2
20150201035343 43 296 17.0 33.0 0.00 0.00 0.00 65 996.3
20150201034348 43 299 17.0 26.0 0.00 0.00 0.00 64 996.7
20150201032336 44 299 15.0 25.0 0.00 0.00 0.00 62 997.1
20150201031337 44 280 6.0 15.0 0.00 0.00 0.00 62 997.4
20150201025339 44 143 6.0 13.0 0.00 0.00 0.00 62 997.6
20150201021339 45 277 12.0 29.0 0.00 0.00 0.00 59 996.4
20150201020336 45 283 17.0 33.0 0.00 0.00 0.00 58 996.2